Pasco, WA

6:57 AM PST on January 21, 2018 (GMT -0800)
Tri-Cities

Weather History for KPSC - January, 2013

Change the Weather History Date:

Thursday, January 31, 2013

  Actual Average Record
Temperature  
Mean Temperature 48 °F 37 °F  
Max Temperature 56 °F 45 °F 66 °F (1995)
Min Temperature 40 °F 29 °F -16 °F (1996)
Degree Days  
Heating Degree Days 17 28  
Month to date heating degree days 1004 934  
Since 1 July heating degree days 2911 3151  
Cooling Degree Days 0 0  
Month to date cooling degree days 0 0  
Year to date cooling degree days 0 0  
Moisture  
Dew Point 39 °F    
Average Humidity 69    
Maximum Humidity 83    
Minimum Humidity 55    
Precipitation  
Precipitation T in 0.03 in 0.54 in (1997)
Month to date precipitation 0.36 1.22  
Year to date precipitation 0.36 1.22  
Snow  
Snow 0.00 in - - ()
Snow Depth 0.00 in    
Sea Level Pressure  
Sea Level Pressure 30.28 in    
Wind  
Wind Speed 8 mph (SSW)    
Max Wind Speed 18 mph    
Max Gust Speed 21 mph    
Visibility 10 miles    
Events      
T = Trace of Precipitation, MM = Missing Value Source: NWS Daily Summary

Daily Weather History Graph

Daily Weather History Graph

Search for Another Location

Airport or City:

Trip Planner

Search our weather history database for the weather conditions in past years. The results will help you decide how hot, cold, wet, or windy it might be!

Date:

Astronomy

Jan. 31, 2013 Rise Set
Actual Time 7:20 AM PST 5:00 PM PST
Civil Twilight 6:48 AM PST 5:32 PM PST
Nautical Twilight 6:12 AM PST 6:08 PM PST
Astronomical Twilight 5:36 AM PST 6:43 PM PST
Moon 10:29 PM PST (1/31) 9:02 AM PST (1/31)
Length of Visible Light 10h 44m
Length of Day
9h 40m
Waning Gibbous, 79% of the Moon is Illuminated
Jan 31
Waning Gibbous
Feb 3
Last Quarter
Feb 9
New
Feb 17
First Quarter
Feb 25
Full

Hourly Weather History & Observations

Time (PST) Temp. Windchill Dew Point Humidity Pressure Visibility Wind Dir Wind Speed Gust Speed Precip Events Conditions
12:53 AM 45.0 °F 41.2 °F 39.0 °F 80% 30.29 in 10.0 mi SSW 6.9 mph - N/A   Mostly Cloudy
1:53 AM 46.0 °F 43.1 °F 39.9 °F 79% 30.30 in 10.0 mi SSW 5.8 mph - N/A   Overcast
2:53 AM 46.0 °F 43.1 °F 39.9 °F 79% 30.30 in 10.0 mi SW 5.8 mph - N/A   Overcast
3:53 AM 46.0 °F 41.9 °F 39.9 °F 79% 30.30 in 10.0 mi SSW 8.1 mph - N/A   Overcast
4:53 AM 45.0 °F 40.6 °F 39.9 °F 82% 30.30 in 10.0 mi South 8.1 mph - N/A   Overcast
5:53 AM 46.0 °F 42.5 °F 39.9 °F 79% 30.29 in 10.0 mi SSW 6.9 mph - N/A   Overcast
6:53 AM 45.0 °F 41.8 °F 39.0 °F 80% 30.29 in 10.0 mi SW 5.8 mph - N/A   Partly Cloudy
7:53 AM 45.0 °F 40.6 °F 39.0 °F 80% 30.31 in 10.0 mi SSW 8.1 mph - N/A   Mostly Cloudy
8:53 AM 46.9 °F - 39.9 °F 77% 30.31 in 10.0 mi SSW 11.5 mph - N/A   Clear
9:53 AM 48.9 °F - 39.9 °F 71% 30.32 in 10.0 mi SSW 12.7 mph - N/A   Clear
10:53 AM 52.0 °F - 39.9 °F 63% 30.32 in 10.0 mi SSW 17.3 mph - N/A   Clear
11:53 AM 52.0 °F - 39.9 °F 63% 30.30 in 10.0 mi SSW 11.5 mph - N/A   Scattered Clouds
12:53 PM 55.0 °F - 39.9 °F 57% 30.28 in 10.0 mi SSW 12.7 mph - N/A   Clear
1:53 PM 55.9 °F - 39.9 °F 55% 30.26 in 10.0 mi SW 9.2 mph - N/A   Clear
2:53 PM 55.0 °F - 39.0 °F 55% 30.26 in 10.0 mi SW 8.1 mph - N/A   Clear
4:53 PM 51.1 °F - 41.0 °F 68% 30.25 in 10.0 mi SSW 6.9 mph - 0.00 in   Overcast
5:53 PM 50.0 °F - 39.9 °F 68% 30.25 in 10.0 mi SSW 5.8 mph - N/A   Overcast
6:53 PM 46.9 °F - 37.9 °F 71% 30.24 in 10.0 mi SW 8.1 mph - N/A   Mostly Cloudy
7:53 PM 46.0 °F 41.0 °F 37.9 °F 73% 30.24 in 10.0 mi SW 10.4 mph - N/A   Scattered Clouds
8:53 PM 44.1 °F 40.8 °F 37.0 °F 76% 30.25 in 10.0 mi WSW 5.8 mph - N/A   Clear
10:53 PM 42.1 °F 36.6 °F 37.0 °F 82% 30.25 in 10.0 mi SSW 9.2 mph - N/A   Clear